SERT 2

Last updated on Thu Oct 30 2025 00:02:14 GMT+0000 (Coordinated Universal Time)

1 04327U 70009A 25302.48703625 .00000032 00000+0 10016-3 0 9994 2 04327 99.2570 247.8721 0005334 132.1465 337.0934 13.58709967762074
UTC large
Height (km)
Speed (km/s)
/
Latitude / Longitude
Inclination (degrees)
Orbital Period (minutes)
Azimuth
Elevation
Range (km)
Doppler Factor

Next 0 passes for location: London (51.5072 / 0.1276)

Sorry there are no passes over London.